Temp
8 8 8 8 8 8 8 8 8 8 9 9 9 9 9 10 10 10 10 10 10 10 11 11 11 11 12 12 8 8 9 10 10 10 11 13 14 15 17 17 16 17 19 17 17 16 17
8 8 8 7 7 8 8 8 8 9 9 9 9 9 9 9 10 10 10 10 10 11 11 10 10 11 10 10 7 8 9 9 10 10 11 12 13 13 15 16 16 16 16 17 16 17 16
8 8 7 7 7 8 8 8 9 9 9 9 9 9 9 9 9 10 10 10 10 10 10 10 9 9 8 7 8 8 9 9 10 10 11 11 11 12 14 16 14 15 15 17 17 16 17
7 7 7 7 7 8 8 8 9 9 9 9 9 9 9 9 9 9 8 8 9 9 9 9 9 9 7 6 7 8 9 10 10 10 10 10 10 11 12 13 14 15 15 17 19 18 17
7 7 7 7 7 8 8 9 9 9 9 8 8 9 9 9 9 8 7 7 9 8 9 9 8 9 8 7 7 8 8 9 10 10 10 10 11 12 12 14 15 16 17 17 18 16 18
7 7 7 7 7 8 8 9 9 9 8 8 8 8 9 8 8 7 7 7 8 8 8 9 8 10 7 7 6 7 8 8 9 10 11 11 12 13 14 15 15 17 16 17 17 16 15
7 7 7 7 8 8 8 9 9 8 8 8 8 8 8 7 7 7 7 7 8 8 7 7 7 7 7 7 6 6 7 8 9 10 11 11 12 13 14 15 14 15 14 15 17 15 14
7 7 7 7 8 8 8 8 8 8 7 7 8 8 7 7 7 7 7 6 6 7 7 6 7 7 6 6 7 7 7 8 8 9 9 11 11 13 12 11 11 12 13 13 15 15 13
7 7 7 7 8 8 8 8 8 7 7 7 7 7 8 7 6 7 7 6 6 7 9 7 6 7 6 6 7 6 6 7 7 8 8 8 10 9 9 9 10 11 12 12 13 15 14
7 7 7 7 8 8 7 8 7 7 7 7 7 7 7 7 6 6 5 6 6 6 11 7 8 7 6 6 8 5 5 5 7 6 7 7 8 8 8 8 10 10 12 12 12 12 12
7 7 7 7 8 8 8 8 7 7 7 7 6 6 6 7 6 5 5 5 6 6 9 8 8 6 7 6 6 7 5 5 6 6 6 7 7 6 6 7 9 8 11 11 11 12 13
7 7 7 7 7 8 8 7 6 6 6 6 6 6 6 7 6 6 5 5 5 10 6 7 7 7 8 7 6 6 6 5 5 6 7 6 7 7 7 7 7 8 8 9 10 11 10
7 7 7 7 7 8 8 7 6 6 6 6 6 6 7 6 5 5 5 5 11 7 8 7 7 7 7 7 7 7 6 6 5 3 6 7 7 7 6 6 7 7 7 7 7 7 9
6 7 7 7 8 7 7 6 6 6 6 6 6 6 6 5 6 5 6 10 6 5 6 7 7 7 6 6 6 6 6 6 4 4 5 5 5 6 6 5 5 7 7 7 6 9 11
6 7 7 7 7 7 7 6 6 6 7 6 6 6 5 6 6 6 8 5 5 6 6 6 7 7 7 7 5 6 6 5 3 5 2 3 3 5 4 4 4 5 5 8 5 9 11
6 7 7 7 7 7 6 6 6 6 6 6 6 6 6 6 7 6 8 5 5 5 5 6 6 5 6 6 6 6 6 3 4 4 2 2 2 5 4 2 2 4 4 5 3 5 8
6 6 7 7 7 7 6 6 6 6 6 6 6 8 6 7 6 7 5 6 5 4 4 5 5 5 5 4 4 5 5 4 3 3 2 2 2 5 6 2 4 2 3 6 7 4 8
6 6 7 7 7 7 7 6 6 6 6 6 6 8 6 7 8 7 7 6 4 5 4 4 5 4 4 3 4 4 3 4 3 2 2 1 2 3 2 3 4 5 5 7 5 4 5
6 6 6 6 7 6 6 6 6 6 6 6 6 5 5 7 4 6 5 5 4 5 5 5 5 4 4 3 3 4 4 4 3 3 2 4 5 5 3 5 3 1 3 7 9 8 6
6 6 6 6 6 6 6 6 6 6 6 6 5 4 4 4 4 7 6 5 5 3 4 4 4 3 4 5 4 4 4 4 3 3 2 3 4 3 2 1 1 0 1 3 6 5 4
5 5 6 6 6 6 6 6 6 6 6 6 4 3 2 3 5 5 6 5 5 5 4 4 5 5 3 5 5 3 4 4 3 3 1 2 2 1 1 1 2 1 0 0 1 1 2
5 5 5 5 6 6 6 6 6 6 6 6 3 4 3 3 3 6 5 5 5 5 4 4 5 4 4 3 4 2 3 2 1 3 2 2 3 2 2 3 4 1 1 1 0 -0 1
5 5 5 5 5 6 6 7 6 6 6 5 4 3 5 4 5 6 5 5 5 3 4 4 4 4 4 4 2 3 3 2 2 2 2 2 3 3 3 3 4 1 -1 -1 -1 -1 -1
4 5 5 5 5 6 6 7 7 7 7 7 5 3 5 5 6 5 4 3 4 4 4 4 3 3 3 1 2 2 3 4 4 3 3 1 3 2 2 4 1 -1 -1 -1 -2 -2 -2
4 4 4 5 5 6 6 7 7 7 6 7 6 4 4 5 5 5 5 5 4 3 4 4 3 2 1 3 5 5 4 4 4 4 4 3 3 2 3 1 0 -0 -2 -1 -2 -2 -2
4 4 4 4 5 5 6 6 6 6 6 7 6 5 3 4 4 2 5 4 5 5 6 4 3 1 2 5 4 3 2 3 2 3 4 4 3 2 2 -0 -1 -2 -1 2 -1 1 -1
4 4 4 4 4 4 5 5 5 5 6 7 5 5 3 3 2 3 3 4 3 4 5 3 2 4 4 5 3 3 2 3 1 0 -1 2 2 2 2 1 0 -0 0 1 0 -1 -2
4 4 4 4 4 5 5 5 5 5 6 7 4 4 3 3 2 2 2 2 4 4 4 2 4 4 4 4 3 2 3 2 1 0 -0 0 2 1 2 1 -0 -1 1 -1 -2 -2 -1
4 4 4 4 4 4 5 5 4 5 5 5 3 4 3 2 2 2 2 2 2 2 2 2 2 1 0 3 4 4 3 3 3 2 2 0 0 1 1 0 -1 -1 -2 -2 -1 -1 -1
Height
1512 1514 1516 1516 1516 1516 1517 1517 1518 1518 1517 1517 1517 1516 1516 1516 1515 1515 1514 1513 1513 1511 1510 1510 1510 1510 1511 1515 1521 1518 1515 1514 1515 1515 1515 1515 1513 1511 1507 1506 1508 1506 1503 1508 1508 1510 1509
1513 1514 1516 1516 1517 1517 1517 1518 1517 1517 1517 1516 1516 1516 1515 1515 1514 1514 1513 1512 1511 1510 1509 1509 1508 1509 1511 1516 1522 1520 1517 1516 1515 1516 1515 1514 1513 1513 1509 1508 1506 1504 1505 1505 1506 1507 1508
1513 1514 1516 1516 1517 1518 1518 1518 1518 1517 1517 1516 1515 1515 1515 1514 1513 1513 1512 1511 1509 1508 1507 1508 1509 1511 1513 1522 1523 1521 1518 1516 1515 1515 1515 1514 1513 1513 1509 1505 1507 1506 1506 1501 1502 1503 1504
1513 1515 1516 1517 1518 1518 1518 1518 1518 1517 1516 1516 1515 1514 1514 1512 1511 1511 1511 1509 1509 1507 1507 1507 1509 1511 1519 1523 1522 1520 1518 1517 1515 1513 1513 1513 1512 1512 1511 1508 1506 1503 1502 1494 1486 1496 1498
1514 1515 1516 1517 1518 1518 1518 1518 1517 1516 1516 1515 1514 1513 1513 1511 1510 1510 1511 1510 1509 1508 1508 1509 1512 1513 1522 1524 1521 1521 1519 1517 1515 1513 1511 1510 1510 1508 1508 1504 1496 1493 1484 1484 1484 1495 1491
1515 1516 1517 1518 1518 1519 1518 1518 1517 1516 1516 1515 1514 1512 1511 1510 1509 1510 1511 1511 1510 1510 1511 1511 1516 1519 1526 1526 1524 1521 1519 1515 1514 1511 1510 1509 1506 1503 1499 1495 1483 1478 1480 1481 1480 1489 1492
1516 1517 1517 1518 1519 1519 1518 1518 1517 1516 1516 1515 1513 1512 1510 1510 1509 1509 1509 1511 1515 1517 1517 1522 1528 1527 1529 1526 1524 1522 1518 1515 1513 1510 1506 1505 1501 1490 1487 1486 1488 1485 1487 1481 1477 1487 1491
1516 1518 1518 1519 1519 1519 1519 1518 1517 1517 1516 1515 1513 1512 1511 1510 1509 1508 1508 1511 1511 1519 1525 1527 1528 1529 1529 1526 1525 1523 1521 1518 1515 1510 1510 1503 1493 1491 1492 1498 1495 1492 1488 1484 1484 1489 1495
1517 1518 1519 1519 1520 1519 1519 1518 1518 1517 1516 1515 1514 1513 1511 1510 1510 1510 1509 1510 1512 1515 1520 1529 1530 1529 1528 1526 1526 1524 1523 1520 1517 1512 1509 1506 1500 1502 1503 1500 1493 1487 1485 1483 1483 1481 1489
1518 1519 1520 1520 1520 1520 1519 1518 1518 1518 1517 1517 1515 1513 1511 1510 1513 1511 1511 1512 1513 1514 1509 1532 1530 1531 1529 1525 1525 1527 1525 1525 1518 1514 1512 1506 1504 1505 1501 1495 1493 1484 1481 1482 1484 1483 1482
1519 1520 1520 1521 1520 1520 1519 1518 1518 1518 1518 1517 1515 1514 1512 1510 1510 1513 1514 1513 1514 1516 1512 1534 1532 1532 1530 1530 1531 1526 1526 1523 1518 1517 1518 1505 1503 1503 1501 1496 1493 1487 1482 1480 1482 1476 1477
1519 1520 1521 1521 1520 1519 1519 1518 1519 1520 1520 1518 1516 1514 1512 1511 1511 1513 1513 1514 1516 1511 1530 1533 1535 1533 1529 1529 1529 1528 1525 1524 1521 1516 1511 1506 1502 1500 1497 1496 1495 1494 1491 1481 1478 1473 1472
1520 1521 1521 1520 1520 1519 1519 1519 1520 1521 1520 1520 1518 1516 1513 1512 1513 1513 1514 1516 1510 1523 1536 1534 1534 1533 1529 1529 1527 1525 1522 1518 1520 1520 1503 1495 1492 1495 1498 1493 1488 1491 1488 1478 1483 1477 1464
1520 1521 1521 1521 1520 1519 1519 1519 1520 1521 1522 1521 1520 1519 1516 1513 1513 1515 1515 1513 1523 1541 1536 1537 1536 1532 1529 1532 1527 1526 1521 1516 1525 1522 1509 1501 1492 1493 1496 1497 1490 1481 1480 1471 1468 1454 1451
1521 1522 1521 1521 1520 1519 1519 1520 1521 1522 1523 1522 1521 1521 1518 1517 1516 1516 1517 1528 1540 1540 1542 1539 1532 1528 1524 1528 1532 1524 1519 1523 1529 1524 1525 1510 1499 1496 1496 1494 1497 1485 1481 1474 1481 1456 1442
1521 1522 1522 1521 1520 1520 1519 1520 1521 1522 1523 1522 1523 1522 1521 1520 1518 1519 1521 1536 1541 1545 1544 1541 1534 1537 1530 1529 1527 1522 1521 1530 1527 1526 1528 1518 1507 1491 1491 1492 1493 1488 1492 1481 1498 1478 1454
1522 1522 1522 1521 1520 1520 1520 1520 1521 1522 1522 1522 1523 1524 1524 1522 1521 1523 1531 1538 1543 1546 1545 1542 1539 1537 1536 1537 1536 1528 1528 1530 1530 1524 1523 1517 1513 1491 1483 1488 1480 1490 1490 1476 1475 1490 1454
1523 1522 1522 1522 1521 1520 1520 1520 1521 1522 1522 1523 1523 1525 1526 1523 1527 1530 1535 1541 1546 1546 1546 1545 1544 1543 1542 1541 1537 1534 1534 1533 1531 1528 1517 1517 1511 1496 1500 1500 1488 1479 1476 1466 1472 1479 1476
1523 1523 1523 1522 1521 1520 1520 1520 1521 1522 1522 1523 1526 1529 1527 1526 1535 1536 1543 1545 1547 1545 1545 1545 1543 1544 1545 1541 1538 1534 1533 1534 1533 1529 1524 1514 1500 1483 1497 1490 1495 1497 1487 1467 1466 1466 1467
1524 1524 1524 1523 1522 1520 1520 1520 1521 1522 1523 1524 1527 1532 1535 1534 1539 1538 1538 1544 1545 1548 1547 1547 1545 1545 1542 1535 1539 1537 1534 1532 1533 1531 1529 1524 1514 1511 1515 1525 1523 1511 1507 1496 1481 1483 1491
1525 1525 1525 1524 1523 1522 1521 1520 1521 1523 1524 1525 1528 1538 1539 1544 1543 1543 1543 1546 1543 1544 1546 1545 1541 1542 1543 1536 1533 1539 1536 1531 1531 1529 1530 1527 1525 1525 1527 1528 1522 1521 1521 1523 1517 1516 1511
1527 1527 1527 1525 1524 1523 1521 1521 1522 1523 1524 1525 1529 1536 1542 1545 1547 1544 1546 1545 1545 1546 1547 1545 1543 1542 1543 1542 1542 1544 1542 1539 1542 1531 1528 1528 1517 1522 1521 1519 1517 1524 1528 1528 1530 1529 1522
1529 1529 1528 1527 1526 1524 1523 1522 1522 1523 1525 1526 1529 1533 1538 1547 1547 1544 1548 1547 1547 1548 1547 1547 1545 1542 1540 1542 1545 1544 1544 1545 1544 1537 1529 1526 1520 1518 1518 1520 1512 1526 1541 1544 1543 1540 1535
1531 1531 1531 1529 1528 1527 1526 1524 1524 1525 1526 1527 1529 1534 1539 1547 1547 1550 1550 1549 1548 1547 1546 1546 1545 1544 1544 1543 1544 1545 1544 1543 1540 1536 1530 1528 1521 1525 1524 1511 1528 1559 1556 1552 1552 1548 1541
1533 1533 1533 1532 1531 1531 1530 1529 1528 1529 1529 1531 1531 1535 1540 1547 1550 1552 1550 1547 1546 1547 1546 1546 1546 1545 1543 1543 1538 1538 1540 1540 1540 1539 1534 1529 1526 1528 1526 1534 1548 1549 1554 1554 1553 1552 1547
1535 1536 1536 1535 1535 1534 1534 1533 1533 1534 1535 1535 1536 1536 1540 1547 1555 1556 1551 1549 1545 1545 1544 1546 1546 1545 1544 1541 1540 1541 1546 1545 1546 1545 1544 1540 1534 1535 1540 1547 1559 1571 1561 1552 1551 1544 1549
1537 1538 1538 1539 1538 1538 1537 1538 1539 1539 1540 1539 1540 1540 1544 1549 1559 1557 1555 1554 1552 1550 1547 1547 1548 1545 1545 1542 1546 1548 1552 1554 1557 1561 1562 1548 1548 1544 1546 1550 1567 1570 1563 1554 1547 1562 1555
1539 1540 1541 1542 1542 1542 1543 1543 1544 1544 1545 1544 1545 1546 1548 1552 1561 1561 1559 1556 1554 1551 1548 1550 1548 1548 1546 1547 1551 1558 1557 1564 1566 1570 1569 1563 1555 1559 1554 1558 1570 1573 1566 1562 1571 1565 1558
1540 1542 1543 1545 1545 1546 1546 1547 1549 1549 1549 1549 1548 1551 1552 1555 1563 1562 1561 1559 1557 1555 1554 1554 1554 1554 1556 1555 1556 1556 1561 1563 1561 1565 1570 1572 1575 1571 1571 1577 1580 1577 1574 1572 1569 1565 1559
Wind_Speed
6 7 7 8 7 7 7 7 6 6 6 6 6 6 7 7 7 8 8 9 10 10 10 9 9 7 6 8 9 15 10 4 2 4 3 3 6 6 11 6 8 13 9 7 11 7 9
7 8 9 9 7 7 7 7 6 6 6 6 6 6 7 7 7 8 9 10 10 10 10 7 6 5 6 10 10 16 14 8 5 4 5 3 3 5 7 8 11 2 10 12 8 11 10
9 10 10 9 8 8 7 7 6 6 6 6 6 6 7 7 7 8 9 10 10 8 5 3 8 20 22 12 14 15 15 9 8 6 6 4 3 6 1 7 6 7 11 13 14 14 12
10 11 10 9 8 7 7 6 6 6 6 6 6 7 8 8 8 8 9 9 9 8 7 8 8 9 9 9 14 19 17 10 9 7 7 7 7 6 9 4 6 9 7 14 6 14 9
12 11 11 9 8 7 7 7 7 7 6 7 8 9 9 7 6 5 8 10 8 10 13 10 10 8 6 10 19 21 17 14 12 8 3 6 5 11 7 12 13 14 16 13 12 9 6
12 11 10 9 8 7 7 7 7 7 8 8 10 12 9 6 5 5 5 12 22 10 10 14 12 4 18 11 16 20 17 9 9 9 7 5 8 11 11 13 18 16 18 17 14 10 12
11 11 10 9 8 8 8 8 7 8 8 10 12 13 9 7 6 5 4 8 1 7 27 19 16 14 12 11 7 19 22 8 11 7 8 7 10 15 17 18 20 19 13 13 7 7 6
11 10 10 9 8 8 8 8 7 8 10 11 12 13 10 6 9 8 7 4 6 13 15 16 13 16 15 10 7 17 20 11 10 7 9 11 16 15 5 11 14 19 21 21 14 11 7
11 10 9 8 7 8 8 7 7 9 10 11 12 12 12 4 7 7 8 11 18 15 5 8 10 15 21 11 7 14 19 16 10 10 8 10 14 15 14 18 18 20 20 18 19 11 14
10 9 8 7 6 7 7 6 7 9 8 9 11 11 12 6 4 7 8 10 14 7 4 8 9 8 18 7 3 10 14 13 15 11 11 9 4 9 15 18 17 21 19 19 19 15 16
10 9 7 6 6 7 6 5 7 8 7 8 10 12 11 9 3 4 6 8 10 1 1 8 6 6 13 14 10 10 12 10 9 12 8 14 14 14 16 19 18 16 18 14 19 19 17
9 8 6 6 6 6 5 5 8 8 7 8 12 14 12 9 6 5 6 6 4 3 5 3 4 10 12 13 8 11 11 5 7 9 9 14 20 17 16 15 16 16 12 15 17 16 18
8 7 6 6 6 6 5 6 9 8 7 9 13 16 14 10 5 6 7 3 2 6 2 7 7 9 8 13 6 11 10 8 8 9 13 18 6 7 8 13 11 14 14 10 12 10 11
7 6 6 6 6 6 6 8 10 8 8 8 11 15 16 16 8 8 4 3 8 1 3 4 8 9 5 11 5 12 10 7 4 8 16 11 13 9 3 8 8 9 19 12 18 15 13
7 6 6 6 7 6 5 8 10 7 7 4 10 10 18 17 8 6 1 7 3 2 5 7 7 5 5 7 6 8 12 6 5 9 10 12 9 17 14 16 10 9 13 23 9 14 11
8 6 6 6 6 6 4 6 8 6 3 4 6 5 16 13 8 8 6 7 3 4 6 3 6 4 8 13 9 12 12 4 11 6 13 5 10 8 12 7 10 16 7 13 4 5 8
7 6 6 6 6 6 4 5 5 4 4 4 3 3 12 5 12 11 5 6 5 4 6 4 5 4 7 9 10 10 11 7 8 17 19 12 5 10 9 11 3 6 5 9 13 4 5
7 6 6 6 6 4 4 5 5 3 3 5 4 3 9 7 5 6 5 3 2 6 3 2 2 3 5 8 5 8 10 9 18 20 14 3 4 5 7 22 13 10 9 15 13 5 5
8 7 7 7 6 5 4 5 6 6 5 5 5 5 12 7 4 6 6 4 3 5 9 4 3 3 4 5 4 10 10 9 13 16 14 14 7 6 6 16 23 15 17 6 9 13 9
8 8 8 8 8 8 6 4 7 9 4 4 4 2 11 15 10 9 8 6 2 0 2 4 4 2 5 5 4 8 13 7 7 17 12 8 17 18 16 13 13 14 26 25 12 7 9
9 9 9 10 9 7 7 6 9 6 2 3 5 5 3 3 7 10 6 2 5 2 2 8 0 6 2 4 6 14 14 9 3 17 7 4 8 19 20 21 28 26 26 26 25 18 11
9 9 9 10 10 8 5 5 7 7 5 3 6 7 9 9 5 6 1 3 5 3 3 5 7 8 0 1 5 5 13 11 11 14 5 1 1 7 5 4 23 29 24 26 26 23 17
10 9 10 11 12 13 11 8 7 7 5 6 16 19 8 6 4 1 4 3 4 4 2 4 8 6 1 3 5 4 3 8 12 14 9 5 5 5 4 10 7 15 26 20 21 22 20
11 11 11 11 12 14 15 15 12 10 8 17 22 12 8 6 7 7 6 1 2 2 2 4 7 5 3 8 4 4 4 2 19 24 21 3 2 4 5 3 11 11 17 10 14 20 23
12 12 12 12 12 14 16 18 18 18 15 19 20 12 8 7 8 10 13 8 4 4 1 3 7 7 2 5 2 2 2 1 7 19 21 18 4 6 4 12 5 24 21 9 9 16 21
13 13 13 13 14 14 16 17 17 16 14 17 25 23 12 8 8 4 6 12 6 5 4 6 6 8 1 2 3 4 5 5 8 10 17 19 16 7 12 7 9 13 20 16 7 13 30
14 13 13 15 17 19 17 19 20 16 11 19 26 25 18 19 11 13 9 8 8 6 2 3 6 7 7 5 5 6 5 4 6 6 9 9 7 15 10 7 6 13 23 19 13 10 27
14 13 14 15 15 14 16 21 20 13 16 22 31 28 26 25 16 16 16 18 13 11 5 5 2 6 4 4 3 3 5 4 5 6 5 9 5 6 6 7 7 19 10 8 9 16 21
14 14 13 14 14 13 13 15 19 15 11 19 30 28 24 22 15 19 22 25 22 12 4 12 6 3 4 3 3 4 6 3 4 4 12 6 9 5 7 4 3 8 6 11 13 16 20
Wind_Direction
123 114 106 99 93 90 87 78 66 53 45 30 13 6 6 6 354 343 339 338 339 332 327 336 344 4 97 82 27 350 345 289 335 354 337 300 260 255 245 239 216 236 235 239 238 226 233
120 114 107 97 92 89 80 70 62 49 34 26 12 8 12 6 350 347 343 344 338 328 326 337 1 50 81 89 6 356 0 350 320 334 326 314 283 265 273 248 240 95 242 239 233 234 236
114 111 106 103 96 86 78 70 55 44 31 15 16 9 10 2 349 351 355 353 347 343 343 26 101 99 78 73 19 8 3 4 353 311 295 299 288 250 277 245 236 242 250 230 229 228 245
116 115 109 102 96 87 75 61 50 37 24 15 10 5 6 359 350 1 15 15 24 37 61 78 112 90 78 26 12 12 8 359 341 321 285 282 268 272 248 257 229 244 229 239 206 209 214
120 117 111 102 92 80 66 54 43 37 28 19 8 5 4 359 354 22 53 47 52 73 73 93 76 105 57 3 13 6 1 355 350 340 316 258 244 250 226 239 245 220 256 217 202 208 214
121 117 109 101 88 73 61 49 43 46 36 28 23 15 16 34 35 44 70 88 73 62 86 70 45 83 32 359 15 3 2 348 329 316 274 253 246 242 225 238 238 239 227 252 229 176 216
120 115 106 96 82 67 57 52 51 53 46 39 28 23 34 70 48 13 54 132 63 55 62 77 63 71 10 2 2 12 5 359 358 295 313 286 262 245 250 241 254 271 264 258 231 138 270
119 112 104 93 80 66 54 53 60 61 55 41 31 28 30 51 31 43 78 115 130 132 82 65 65 50 21 2 353 11 10 18 357 342 314 270 253 276 301 271 260 250 253 245 237 208 274
117 110 103 92 78 63 54 52 72 76 60 44 33 25 21 28 43 59 88 115 128 114 96 52 35 23 9 358 36 359 6 351 343 316 322 293 293 306 285 270 256 246 247 249 248 229 226
119 109 100 89 72 59 50 52 88 84 68 47 28 18 16 27 58 65 72 133 150 132 160 24 17 21 356 2 43 8 355 345 316 318 333 288 290 299 288 273 263 258 245 246 258 230 242
117 109 99 84 63 49 42 65 103 90 67 36 18 17 19 22 86 90 121 125 147 151 144 3 18 359 2 33 327 13 347 341 332 326 302 297 307 294 286 277 274 275 275 243 238 235 239
118 108 96 77 57 42 40 86 118 98 73 44 25 14 11 33 105 127 138 124 124 215 50 14 350 352 0 17 18 353 4 351 297 296 273 276 280 267 276 283 272 261 288 252 238 232 230
117 104 87 63 47 38 52 116 131 111 87 61 39 21 18 40 117 121 133 134 176 51 312 354 337 340 339 359 2 6 357 20 6 330 341 320 322 289 273 275 237 226 233 215 214 216 223
111 100 80 58 44 44 70 135 143 120 110 78 32 11 33 42 101 117 113 221 66 339 354 325 325 320 356 7 12 351 340 344 20 320 317 342 326 344 35 294 306 224 217 234 213 209 209
113 90 75 61 45 49 84 148 154 139 140 49 12 27 35 45 76 74 290 56 70 21 331 323 308 325 16 16 342 330 1 350 326 339 345 318 300 304 281 278 239 226 226 224 272 267 243
104 91 74 61 52 57 95 147 173 182 224 327 348 23 21 26 54 63 68 97 102 1 326 309 359 5 342 356 347 354 4 26 337 327 334 307 295 340 308 240 240 237 338 202 157 257 194
108 93 73 61 54 59 116 141 167 207 273 310 344 106 7 71 68 67 74 87 98 38 8 345 1 334 353 360 340 349 349 352 340 323 322 280 243 310 350 9 61 160 231 234 187 253 274
108 89 70 59 52 59 90 153 140 119 99 73 72 85 358 96 56 58 69 67 75 35 29 44 325 347 358 344 344 10 355 358 337 329 332 69 288 303 16 39 13 50 216 218 186 174 239
105 88 71 56 49 59 80 150 148 143 69 99 81 56 16 98 89 85 110 96 59 31 26 19 16 4 1 7 352 19 352 346 352 358 360 338 13 83 83 25 39 37 25 328 201 249 352
105 89 71 59 66 62 58 132 153 158 63 93 102 72 39 56 75 99 101 68 128 88 49 354 2 33 308 50 71 7 9 352 7 11 358 345 64 68 64 59 44 45 41 34 18 32 340
107 90 72 65 69 65 61 105 158 168 124 81 72 69 91 66 58 82 93 74 52 60 23 21 154 31 344 36 59 23 7 11 133 5 6 349 95 103 102 75 48 57 50 45 42 25 29
111 92 75 65 59 58 76 112 148 152 137 105 105 129 92 101 83 83 59 66 29 51 354 10 358 7 314 52 49 12 29 24 37 330 4 277 137 194 225 314 58 41 43 40 33 21 20
113 95 82 72 64 65 65 89 120 139 128 103 115 119 110 68 85 45 27 12 20 337 145 344 337 334 304 93 323 253 47 77 40 8 349 326 337 329 81 350 68 27 9 40 28 18 13
115 102 89 78 78 71 74 79 91 107 117 135 128 111 102 89 76 57 22 54 331 281 310 3 1 13 11 300 151 165 212 342 33 26 22 319 13 28 359 260 52 350 10 28 29 13 7
120 111 96 82 92 82 82 84 91 95 108 123 122 106 102 101 88 67 42 27 52 131 195 4 22 347 326 157 204 129 13 155 21 29 30 33 35 59 64 70 83 16 2 351 53 23 4
124 116 103 93 92 91 88 91 91 94 111 119 110 106 105 101 40 9 23 31 24 15 140 53 28 26 100 83 74 29 37 360 10 3 30 43 50 65 57 57 42 348 336 359 215 26 359
130 119 111 110 95 94 95 99 96 98 110 111 105 98 95 91 55 43 42 11 14 23 352 21 2 21 37 78 69 45 56 6 20 16 346 8 34 47 60 73 67 355 341 329 45 337 338
142 130 125 116 115 109 100 105 105 88 106 105 97 95 97 95 79 66 56 43 33 26 31 349 233 27 32 66 71 62 52 65 79 46 7 23 359 29 37 50 43 353 356 35 320 332 357
149 142 139 139 128 111 106 127 119 98 94 106 98 94 95 92 88 65 56 52 43 39 35 43 85 79 50 94 88 77 87 74 30 64 22 51 36 54 25 74 306 348 316 360 1 6 8